Change the Weather History Date:

Friday, September 6, 2013

  Actual Average Record
Temperature  
Mean Temperature 78 °F -  
Max Temperature 92 °F 86 °F 97 °F (2010)
Min Temperature 64 °F 64 °F 51 °F (1997)
Cooling Degree Days 13    
Growing Degree Days 28 (Base 50)    
Moisture  
Dew Point 69 °F    
Average Humidity 94    
Maximum Humidity 100    
Minimum Humidity 51    
Precipitation  
Precipitation 0.32 in - - ()
Sea Level Pressure  
Sea Level Pressure 30.05 in    
Wind  
Wind Speed 2 mph (SSE)    
Max Wind Speed 16 mph    
Max Gust Speed 23 mph    
Visibility 4 miles    
Events Fog , Rain , Thunderstorm    
Averages and records for this station are not official NWS values.
T = Trace of Precipitation, MM = Missing Value Source: NWS Daily Summary

Daily Weather History Graph

Daily Weather History Graph

Search for Another Location

Airport or City:

Trip Planner

Search our weather history database for the weather conditions in past years. The results will help you decide how hot, cold, wet, or windy it might be!

Date:

Astronomy

Sep. 06, 2013 Rise Set
Actual Time 7:18 AM EDT 7:57 PM EDT
Civil Twilight 6:53 AM EDT 8:22 PM EDT
Nautical Twilight 6:24 AM EDT 8:51 PM EDT
Astronomical Twilight 5:54 AM EDT 9:21 PM EDT
Moon 8:22 AM EDT (9/6) 8:30 PM EDT (9/6)
Length of Visible Light 13h 28m
Length of Day
12h 39m
New Moon, 1% of the Moon is Illuminated
Sep 6
New Moon
Sep 12
First Quarter
Sep 19
Full
Sep 26
Last Quarter
Oct 4
New

Hourly Weather History & Observations

Time (EDT) Temp. Heat Index Dew Point Humidity Pressure Visibility Wind Dir Wind Speed Gust Speed Precip Events Conditions
12:32 AM 68.0 °F - 68.0 °F 100% 30.07 in 10.0 mi SW 2.3 mph - N/A   Clear
12:36 AM 68.0 °F - 68.0 °F 100% 30.07 in 10.0 mi Calm Calm - N/A Rain Light Rain
12:41 AM 68.0 °F - 68.0 °F 100% 30.07 in 10.0 mi East 1.2 mph - N/A   Clear
12:58 AM 68.5 °F - 68.4 °F 99% 30.09 in 10.0 mi Calm Calm - 0.00 in   Clear
1:58 AM 67.6 °F - 67.5 °F 99% 30.07 in 9.0 mi Calm Calm - N/A   Clear
2:38 AM 66.2 °F - 66.2 °F 100% 30.07 in 4.0 mi ESE 1.2 mph - N/A   Clear
2:48 AM 68.0 °F - 68.0 °F 100% 30.07 in 5.0 mi Calm Calm - N/A   Clear
2:58 AM 67.5 °F - 67.5 °F 100% 30.07 in 7.0 mi ESE 1.2 mph - N/A   Clear
3:08 AM 66.2 °F - 66.2 °F 100% 30.07 in 4.0 mi ESE 2.3 mph - N/A   Clear
3:10 AM 66.2 °F - 66.2 °F 100% 30.07 in 3.0 mi ESE 2.3 mph - N/A   Light Drizzle
3:11 AM 66.2 °F - 66.2 °F 100% 30.06 in 3.0 mi ESE 2.3 mph - N/A   Clear
3:16 AM 66.2 °F - 66.2 °F 100% 30.06 in 2.0 mi ESE 1.2 mph - N/A   Clear
3:19 AM 66.2 °F - 66.2 °F 100% 30.06 in 2.0 mi Calm Calm - N/A   Light Drizzle
3:20 AM 66.2 °F - 66.2 °F 100% 30.06 in 2.5 mi Calm Calm - N/A   Clear
3:22 AM 66.2 °F - 66.2 °F 100% 30.06 in 3.0 mi Calm Calm - N/A Rain Light Rain
3:27 AM 66.2 °F - 66.2 °F 100% 30.06 in 5.0 mi Calm Calm - N/A Rain Light Rain
3:32 AM 66.2 °F - 66.2 °F 100% 30.06 in 4.0 mi Calm Calm - N/A   Clear
3:42 AM 66.2 °F - 66.2 °F 100% 30.06 in 1.0 mi Calm Calm - N/A   Clear
3:47 AM 66.2 °F - 66.2 °F 100% 30.06 in 0.5 mi Calm Calm - N/A Fog Fog
3:57 AM 64.4 °F - 64.4 °F 100% 30.06 in 0.5 mi Calm Calm - N/A Fog Fog
3:58 AM 64.4 °F - 64.4 °F 100% 30.06 in 0.5 mi Calm Calm - 0.00 in Fog Fog
4:13 AM 64.4 °F - 64.4 °F 100% 30.05 in 0.8 mi Calm Calm - N/A   Clear
4:18 AM 64.4 °F - 64.4 °F 100% 30.05 in 2.0 mi Calm Calm - N/A   Clear
4:23 AM 66.2 °F - 66.2 °F 100% 30.05 in 1.0 mi Calm Calm - N/A   Clear
4:28 AM 66.2 °F - 66.2 °F 100% 30.05 in 0.5 mi Calm Calm - N/A Fog Fog
4:33 AM 66.2 °F - 66.2 °F 100% 30.05 in 0.2 mi Calm Calm - N/A Fog Fog
4:58 AM 64.8 °F - 64.4 °F 99% 30.05 in 0.5 mi Calm Calm - N/A Fog Fog
5:13 AM 64.4 °F - 64.4 °F 100% 30.05 in 0.8 mi Calm Calm - N/A   Clear
5:18 AM 66.2 °F - 66.2 °F 100% 30.05 in 1.0 mi Calm Calm - N/A   Clear
5:23 AM 66.2 °F - 66.2 °F 100% 30.05 in 1.0 mi Calm Calm - N/A   Clear
5:28 AM 66.2 °F - 66.2 °F 100% 30.05 in 1.2 mi Calm Calm - N/A   Clear
5:33 AM 66.2 °F - 66.2 °F 100% 30.05 in 1.8 mi Calm Calm - N/A   Clear
5:38 AM 66.2 °F - 66.2 °F 100% 30.05 in 1.5 mi Calm Calm - N/A   Clear
5:43 AM 66.2 °F - 66.2 °F 100% 30.05 in 0.8 mi Variable 1.2 mph - N/A   Clear
5:48 AM 64.4 °F - 64.4 °F 100% 30.06 in 0.8 mi SE 3.5 mph - N/A   Clear
5:53 AM 64.4 °F - 64.4 °F 100% 30.05 in 1.5 mi Calm Calm - N/A   Clear
5:58 AM 64.4 °F - 64.4 °F 100% 30.06 in 6.0 mi Calm Calm - N/A   Clear
6:03 AM 64.4 °F - 64.4 °F 100% 30.06 in 5.0 mi Calm Calm - N/A   Clear
6:08 AM 66.2 °F - 66.2 °F 100% 30.06 in 5.0 mi SE 1.2 mph - N/A   Clear
6:13 AM 64.4 °F - 64.4 °F 100% 30.06 in 4.0 mi SE 2.3 mph - N/A   Clear
6:23 AM 64.4 °F - 64.4 °F 100% 30.06 in 7.0 mi ESE 1.2 mph - N/A   Clear
6:28 AM 64.4 °F - 64.4 °F 100% 30.06 in 10.0 mi Calm Calm - N/A   Clear
6:38 AM 64.4 °F - 64.4 °F 100% 30.06 in 9.0 mi Calm Calm - N/A   Clear
6:58 AM 64.4 °F - 64.4 °F 100% 30.06 in 1.0 mi Calm Calm - N/A   Clear
7:03 AM 64.4 °F - 64.4 °F 100% 30.06 in 0.8 mi North 2.3 mph - N/A   Clear
7:08 AM 64.4 °F - 64.4 °F 100% 30.06 in 0.8 mi WNW 2.3 mph - N/A   Clear
7:13 AM 64.4 °F - 64.4 °F 100% 30.06 in 0.2 mi WNW 2.3 mph - N/A Fog Fog
7:18 AM 64.4 °F - 64.4 °F 100% 30.07 in 0.5 mi WNW 2.3 mph - N/A Fog Fog
7:23 AM 64.4 °F - 64.4 °F 100% 30.07 in 1.0 mi WNW 1.2 mph - N/A   Clear
7:28 AM 64.4 °F - 64.4 °F 100% 30.07 in 1.2 mi West 2.3 mph - N/A   Clear
7:33 AM 64.4 °F - 64.4 °F 100% 30.07 in 2.5 mi West 1.2 mph - N/A   Clear
7:38 AM 64.4 °F - 64.4 °F 100% 30.07 in 3.0 mi Calm Calm - N/A   Clear
7:58 AM 65.7 °F - 65.7 °F 100% 30.09 in 8.0 mi Calm Calm - N/A   Clear
8:58 AM 70.0 °F - 70.0 °F 100% 30.10 in 10.0 mi NW 1.2 mph - N/A   Clear
9:58 AM 77.0 °F - 72.3 °F 85% 30.09 in 10.0 mi North 4.6 mph - N/A   Clear
10:58 AM 81.9 °F 87.7 °F 73.9 °F 77% 30.10 in 10.0 mi South 3.5 mph - N/A   Clear
11:58 AM 85.5 °F 94.2 °F 75.0 °F 71% 30.09 in 10.0 mi West 3.5 mph - N/A   Scattered Clouds
12:08 PM 84.2 °F 92.3 °F 75.2 °F 74% 30.09 in 10.0 mi Variable 1.2 mph - N/A   Mostly Cloudy
12:28 PM 87.8 °F 97.6 °F 75.2 °F 66% 30.09 in 10.0 mi SSE 6.9 mph - N/A   Scattered Clouds
12:58 PM 87.6 °F 97.6 °F 75.6 °F 67% 30.09 in 10.0 mi SSE 5.8 mph - N/A   Partly Cloudy
1:58 PM 89.6 °F 98.2 °F 73.6 °F 59% 30.07 in 10.0 mi SSE 5.8 mph - N/A   Partly Cloudy
2:58 PM 91.6 °F 102.3 °F 74.7 °F 58% 30.05 in 10.0 mi Variable 3.5 mph - N/A   Clear
3:58 PM 91.0 °F 98.7 °F 72.1 °F 54% 30.02 in 10.0 mi Variable 3.5 mph - N/A   Clear
4:58 PM 92.1 °F 100.5 °F 72.5 °F 53% 30.00 in 10.0 mi South 4.6 mph - N/A   Scattered Clouds
5:58 PM 91.6 °F 98.2 °F 70.9 °F 51% 30.00 in 10.0 mi NE 5.8 mph - N/A   Partly Cloudy
6:41 PM 87.8 °F 99.7 °F 77.0 °F 70% 30.01 in 10.0 mi SSE 2.3 mph - N/A Thunderstorm Thunderstorm
6:46 PM 86.0 °F 96.9 °F 77.0 °F 74% 30.01 in 10.0 mi ESE 4.6 mph - N/A Rain , Thunderstorm Light Thunderstorms and Rain
6:54 PM 84.2 °F 90.9 °F 73.4 °F 70% 30.02 in 2.5 mi NNE 16.1 mph 23.0 mph N/A Rain , Thunderstorm Light Thunderstorms and Rain
6:55 PM 82.4 °F 88.2 °F 73.4 °F 74% 30.02 in 2.0 mi North 12.7 mph 23.0 mph N/A Rain , Thunderstorm Thunderstorms and Rain
6:58 PM 82.4 °F 87.2 °F 71.6 °F 70% 30.03 in 1.5 mi Variable 2.3 mph 23.0 mph 0.11 in Rain , Thunderstorm Heavy Thunderstorms and Rain
7:03 PM 80.6 °F 84.6 °F 71.6 °F 74% 30.02 in 1.2 mi North 11.5 mph 23.0 mph N/A Rain , Thunderstorm Heavy Thunderstorms and Rain
7:07 PM 78.8 °F - 71.6 °F 78% 30.02 in 1.8 mi Variable 5.8 mph - N/A Rain Heavy Rain
7:12 PM 77.0 °F - 71.6 °F 83% 30.01 in 1.5 mi SW 5.8 mph - N/A Rain Rain
7:17 PM 77.0 °F - 73.4 °F 89% 30.01 in 3.0 mi Variable 3.5 mph - N/A Rain Light Rain
7:20 PM 75.2 °F - 75.2 °F 100% 30.01 in 10.0 mi Variable 2.3 mph - N/A   Mostly Cloudy
7:58 PM 75.6 °F - 75.2 °F 99% 30.03 in 7.0 mi ESE 1.2 mph - 0.21 in   Scattered Clouds
8:23 PM 75.2 °F - 75.2 °F 100% 30.03 in 6.0 mi Calm Calm - N/A Thunderstorm Scattered Clouds
8:28 PM 75.2 °F - 75.2 °F 100% 30.03 in 5.0 mi Calm Calm - N/A Thunderstorm Scattered Clouds
8:48 PM 75.2 °F - 75.2 °F 100% 30.04 in 4.0 mi SSE 3.5 mph - N/A   Scattered Clouds
8:58 PM 75.4 °F - 75.4 °F 100% 30.04 in 8.0 mi SE 4.6 mph - N/A   Scattered Clouds
9:38 PM 73.4 °F - 73.4 °F 100% 30.04 in 5.0 mi Calm Calm - N/A   Clear
9:58 PM 73.9 °F - 73.9 °F 100% 30.06 in 2.5 mi Calm Calm - N/A   Clear
10:08 PM 73.4 °F - 73.4 °F 100% 30.05 in 1.5 mi Variable 1.2 mph - N/A   Clear
10:13 PM 73.4 °F - 73.4 °F 100% 30.05 in 0.8 mi West 1.2 mph - N/A   Clear
10:23 PM 73.4 °F - 73.4 °F 100% 30.05 in 1.5 mi Calm Calm - N/A   Clear
10:28 PM 73.4 °F - 73.4 °F 100% 30.05 in 2.5 mi Calm Calm - N/A   Clear
10:33 PM 73.4 °F - 73.4 °F 100% 30.05 in 1.2 mi Calm Calm - N/A   Clear
10:36 PM 73.4 °F - 73.4 °F 100% 30.05 in 0.5 mi Calm Calm - N/A Fog Light Drizzle
10:48 PM 71.6 °F - 71.6 °F 100% 30.04 in 5.0 mi WNW 1.2 mph - N/A   Clear
10:58 PM 71.6 °F - 71.6 °F 100% 30.04 in 4.0 mi WNW 1.2 mph - N/A   Clear
11:16 PM 71.6 °F - 71.6 °F 100% 30.05 in 5.0 mi North 3.5 mph - N/A   Clear
11:21 PM 71.6 °F - 71.6 °F 100% 30.05 in 6.0 mi NNW 3.5 mph - N/A   Clear
11:41 PM 71.6 °F - 71.6 °F 100% 30.05 in 1.8 mi SW 2.3 mph - N/A   Clear
11:46 PM 71.6 °F - 71.6 °F 100% 30.05 in 0.8 mi SSW 2.3 mph - N/A   Clear
11:51 PM 71.6 °F - 71.6 °F 100% 30.05 in 0.8 mi South 3.5 mph - N/A   Clear
11:56 PM 71.6 °F - 71.6 °F 100% 30.05 in 1.2 mi South 2.3 mph - N/A   Clear
11:58 PM 71.6 °F - 71.6 °F 100% 30.05 in 1.2 mi South 2.3 mph - N/A   Clear